Weather History for KCSM - December, 2012

Change the Weather History Date:

Thursday, December 6, 2012

  Actual Average Record
Temperature  
Mean Temperature 52 °F -  
Max Temperature 62 °F 51 °F 68 °F (2001)
Min Temperature 43 °F 31 °F 12 °F (2013)
Degree Days  
Heating Degree Days 12    
Growing Degree Days 2 (Base 50)    
Moisture  
Dew Point 36 °F    
Average Humidity 62    
Maximum Humidity 86    
Minimum Humidity 29    
Precipitation  
Precipitation 0.00 in - - ()
Sea Level Pressure  
Sea Level Pressure 29.84 in    
Wind  
Wind Speed 16 mph (SW)    
Max Wind Speed 22 mph    
Max Gust Speed 30 mph    
Visibility 10 miles    
Events      
Averages and records for this station are not official NWS values.
T = Trace of Precipitation, MM = Missing Value Source: NWS Daily Summary

Daily Weather History Graph

Daily Weather History Graph

Search for Another Location

Airport or City:

Trip Planner

Search our weather history database for the weather conditions in past years. The results will help you decide how hot, cold, wet, or windy it might be!

Date:

Astronomy

Dec. 06, 2012 Rise Set
Actual Time 7:32 AM CST 5:24 PM CST
Civil Twilight 7:03 AM CST 5:52 PM CST
Nautical Twilight 6:32 AM CST 6:23 PM CST
Astronomical Twilight 6:01 AM CST 6:54 PM CST
Moon 12:04 AM CST (12/6) 12:37 PM CST (12/6)
Length of Visible Light 10h 48m
Length of Day
9h 52m
Waning Gibbous, 49% of the Moon is Illuminated
Dec 6
Waning Gibbous
Dec 13
New
Dec 19
First Quarter
Dec 28
Full
Jan 4
Last Quarter

Hourly Weather History & Observations

Time (CST) Temp. Windchill Dew Point Humidity Pressure Visibility Wind Dir Wind Speed Gust Speed Precip Events Conditions
12:53 AM 48.0 °F - 37.0 °F 66% 29.91 in 10.0 mi South 21.9 mph 29.9 mph N/A   Clear
1:53 AM 46.0 °F 38.5 °F 37.9 °F 73% 29.90 in 10.0 mi South 19.6 mph - N/A   Clear
2:53 AM 46.0 °F 38.5 °F 39.9 °F 79% 29.86 in 10.0 mi South 19.6 mph - N/A   Clear
3:53 AM 45.0 °F 37.4 °F 39.9 °F 82% 29.86 in 10.0 mi SSE 18.4 mph - N/A   Clear
4:53 AM 44.1 °F 36.2 °F 39.9 °F 85% 29.82 in 10.0 mi South 18.4 mph - N/A   Clear
5:53 AM 44.1 °F 37.1 °F 39.9 °F 85% 29.82 in 10.0 mi South 15.0 mph - N/A   Clear
6:53 AM 44.1 °F 35.9 °F 39.0 °F 82% 29.81 in 10.0 mi South 19.6 mph - N/A   Clear
7:53 AM 43.0 °F 35.1 °F 39.0 °F 86% 29.81 in 9.0 mi South 17.3 mph - N/A   Clear
8:53 AM 46.0 °F 39.3 °F 39.0 °F 76% 29.80 in 10.0 mi South 16.1 mph - N/A   Clear
9:53 AM 52.0 °F - 34.0 °F 50% 29.81 in 10.0 mi SSW 18.4 mph - N/A   Clear
10:53 AM 53.1 °F - 34.0 °F 48% 29.80 in 10.0 mi SSW 10.4 mph - N/A   Clear
11:53 AM 55.9 °F - 32.0 °F 40% 29.78 in 10.0 mi WSW 8.1 mph - N/A   Clear
12:53 PM 59.0 °F - 30.9 °F 35% 29.77 in 10.0 mi WSW 3.5 mph - N/A   Clear
1:53 PM 62.1 °F - 28.9 °F 29% 29.77 in 10.0 mi NNW 10.4 mph 16.1 mph N/A   Clear
2:53 PM 61.0 °F - 30.0 °F 31% 29.78 in 10.0 mi North 11.5 mph - N/A   Clear
3:53 PM 60.1 °F - 32.0 °F 35% 29.79 in 10.0 mi North 12.7 mph - N/A   Clear
4:53 PM 55.9 °F - 32.0 °F 40% 29.82 in 10.0 mi North 12.7 mph - N/A   Clear
5:53 PM 51.1 °F - 33.1 °F 50% 29.85 in 10.0 mi North 8.1 mph - N/A   Clear
7:53 PM 48.0 °F - 35.1 °F 61% 29.89 in 10.0 mi NNW 9.2 mph - N/A   Clear
8:53 PM 46.0 °F 41.0 °F 36.0 °F 68% 29.89 in 10.0 mi North 10.4 mph - N/A   Clear
9:53 PM 43.0 °F 40.3 °F 36.0 °F 76% 29.89 in 10.0 mi North 4.6 mph - N/A   Clear
10:53 PM 43.0 °F 37.2 °F 36.0 °F 76% 29.89 in 10.0 mi North 10.4 mph - N/A   Clear
11:53 PM 43.0 °F 36.8 °F 35.1 °F 74% 29.89 in 10.0 mi North 11.5 mph - N/A   Clear